Regional Weather Roundup
Issued by NWS

Home | Current Version | Previous Version | Text Only | Print | Product List | Glossary On
Versions: 1 2 3 4 5 6 7 8 9 10 11 12 13 14 15 16 17 18 19 20 21 22 23 24 25 26 27 28 29 30 31 32 33 34 35 36 37 38 39 40 41 42 43 44 45 46 47 48 49 50
000
ASUS43 KTOP 242359
RWRKS

WEATHER ROUNDUP FOR KANSAS
NATIONAL WEATHER SERVICE GOODLAND KS
700 PM CDT SAT JUN 24 2017

NOTE:  "FAIR" INDICATES FEW OR NO CLOUDS BELOW 12,000 FEET WITH NO
SIGNIFICANT WEATHER AND/OR OBSTRUCTIONS TO VISIBILITY.

KSZ001>006-013>018-027>032-041>047-250100-
NORTHWEST KANSAS

CITY           SKY/WX    TMP DP  RH WIND       PRES   REMARKS
GOODLAND       PTSUNNY   72  50  45 SE8       30.22F
6HR MIN TEMP:  67; 6HR MAX TEMP:  75;

HAYS           CLOUDY    76  53  44 NE9       30.19S
HILL CITY      CLOUDY    75  52  44 E7        30.21S
6HR MIN TEMP:  73; 6HR MAX TEMP:  79;

RUSSELL        CLOUDY    79  49  34 NE12      30.17S
6HR MIN TEMP:  75; 6HR MAX TEMP:  81;

$$

KSZ061>065-074>080-084>089-250100-
SOUTHWEST KANSAS

CITY           SKY/WX    TMP DP  RH WIND       PRES   REMARKS
DODGE CITY     PTSUNNY   77  52  41 S5        30.20S
6HR MIN TEMP:  75; 6HR MAX TEMP:  80;

ELKHART          N/A     73  48  41 S13         N/A
GARDEN CITY    MOSUNNY   78  49  35 S6        30.20F
6HR MIN TEMP:  72; 6HR MAX TEMP:  80;

GREAT BEND     PTSUNNY   81  51  35 CALM      30.17F
LIBERAL        CLOUDY    78  53  41 S10       30.19F
$$

KSZ066>073-081>083-090>101-250100-
SOUTHEAST KANSAS

CITY           SKY/WX    TMP DP  RH WIND       PRES   REMARKS
CHANUTE        SUNNY     80  45  28 N9        30.17S
6HR MIN TEMP:  79; 6HR MAX TEMP:  83;

COFFEYVILLE    SUNNY     82  50  32 N9        30.15S
6HR MIN TEMP:  79; 6HR MAX TEMP:  85;

HUTCHINSON     PTSUNNY   81  51  35 NE3       30.15F
6HR MIN TEMP:  79; 6HR MAX TEMP:  85;

MEDICINE LODGE   N/A     83  49  30 CALM      30.15F
NEWTON         MOSUNNY   79  50  36 NE6       30.18S
PARSONS        SUNNY     81  48  31 VRB5      30.17S
6HR MIN TEMP:  79; 6HR MAX TEMP:  85;

WICHITA INTL   MOSUNNY   84  51  31 NE3       30.15S
6HR MIN TEMP:  77; 6HR MAX TEMP:  84;

WICHITA JABRA  SUNNY     79  54  41 E8        30.16S
6HR MIN TEMP:  77; 6HR MAX TEMP:  83;

WINFIELD       SUNNY     81  51  35 NE8       30.17S
6HR MIN TEMP:  79; 6HR MAX TEMP:  83;

$$

KSZ007>012-019>026-033>040-048>060-102>105-250100-
NORTHEAST KANSAS

CITY           SKY/WX    TMP DP  RH WIND       PRES   REMARKS
CONCORDIA      CLOUDY    76  42  29 NW7       30.18F
6HR MIN TEMP:  76; 6HR MAX TEMP:  82;

EMPORIA        SUNNY     76  50  40 CALM      30.17F
6HR MIN TEMP:  75; 6HR MAX TEMP:  81;

LAWRENCE       SUNNY     78  46  32 NW12      30.16F
6HR MIN TEMP:  76; 6HR MAX TEMP:  79;

MANHATTAN      CLOUDY    78  43  28 N5        30.17F
6HR MIN TEMP:  78; 6HR MAX TEMP:  83; 6HR PCP: TRACE;

OLATHE IND     SUNNY     76  47  35 NW8       30.17F
6HR MIN TEMP:  74; 6HR MAX TEMP:  78;

OLATHE EXE     SUNNY     76  46  34 N10       30.17F
6HR MIN TEMP:  74; 6HR MAX TEMP:  79;

SALINA         CLOUDY    82  45  27 N12       30.17S
6HR MIN TEMP:  79; 6HR MAX TEMP:  86;

TOPEKA BILLARD SUNNY     79  48  33 NW8       30.16F
6HR MIN TEMP:  76; 6HR MAX TEMP:  81;

TOPEKA FORBES  CLOUDY    77  44  30 NW9       30.17F
6HR MIN TEMP:  77; 6HR MAX TEMP:  82;

$$



USA.gov is the U.S. government's official web portal to all federal, state and local government web resources and services.